Overview Statistics Trail Chart Weather Telemetry Raw packets
 

This is the latest recevied weather packets stored in our database for station/object KQ4KX. If no packets are shown the sender has not sent any weather packets the latest 10 day(s).

<< 17 18 19 20 21 22 23 >>
Time Temp. Humidity Pressure Rain* Wind** Luminosity Snow
1788572256 26.67° C 94% 1015.3 hPa 0 mm - - -
1788571595 26.67° C 93% 1015.2 hPa 0 mm - - -
1788571265 26.67° C 93% 1015.3 hPa 0 mm - - -
1788571062 26.67° C 93% 1015.3 hPa 0 mm - - -
1788570935 26.67° C 93% 1015.3 hPa 0 mm - - -
1788570636 26.67° C 92% 1015.3 hPa 0 mm - - -
1788570433 26.67° C 91% 1015.3 hPa 0 mm - - -
1788570305 26.67° C 91% 1015.3 hPa 0 mm - - -
1788570233 27.22° C 89% 1015.3 hPa 0 mm - - -
1788570005 27.22° C 89% 1015.3 hPa 0 mm - - -
1788569810 27.22° C 88% 1015 hPa 0 mm - - -
1788569705 27.22° C 88% 1015 hPa 0 mm - - -
1788569375 27.22° C 88% 1014.9 hPa 0 mm - - -
1788569045 27.78° C 88% 1015.2 hPa 0 mm - - -
1788568745 27.78° C 87% 1015.5 hPa 0 mm - - -
1788568445 28.33° C 89% 1015.5 hPa 0 mm - - -
1788568318 28.33° C 90% 1015.7 hPa 0 mm - - -
1788568145 28.33° C 90% 1015.7 hPa 0 mm - - -
1788567185 28.33° C 89% 1015.4 hPa 0 mm - - -
1788566855 28.33° C 89% 1015 hPa 0 mm - - -
1788565731 29.44° C 86% 1015.2 hPa 0 mm - - -
1788565625 29.44° C 86% 1015.2 hPa 0 mm - - -
1788565295 29.44° C 86% 1015 hPa 0 mm - - -
1788564995 29.44° C 86% 1014.8 hPa 0 mm - - -
1788564835 29.44° C 85% 1014.9 hPa 0 mm - - -

* Rain latest hour (hover to see other rain measurements)
** Current wind speed in m/s (hover to see current wind gust speed)